Theta_e
306 306 306 305 305 305 306 306 306 307 307 305 304 302 302 301 302 297 292 292 290 287 288 289 289 285 285 283 279 281 281 285 282 277 283 284 283 285 281 284 283 279 281 278 282 280 275 293 292 286 288 293 296 296
306 305 305 305 305 305 305 305 306 307 307 305 304 302 301 301 302 301 292 294 294 290 287 291 292 293 291 289 284 283 280 281 283 279 279 279 276 279 280 277 287 279 285 281 284 281 288 291 292 294 295 295 297 297
307 306 305 305 305 305 305 305 306 307 307 305 304 302 301 301 302 301 295 294 293 289 286 284 285 290 293 293 293 282 282 286 286 291 290 284 280 285 281 279 282 286 288 284 284 288 289 291 294 296 299 298 299 298
306 306 306 305 305 305 305 305 306 306 307 305 303 302 301 301 302 301 296 296 295 290 283 283 293 291 295 293 292 292 288 289 289 293 290 287 284 286 284 283 282 286 287 284 284 289 291 294 296 297 298 299 298 297
306 306 305 305 304 305 305 305 306 307 307 305 303 302 301 301 301 299 296 295 297 289 282 284 290 291 295 295 293 291 289 285 286 289 289 287 289 288 289 288 285 288 286 285 285 292 291 293 296 299 296 296 294 293
305 305 305 304 304 305 303 304 306 307 306 305 304 302 301 300 300 293 288 294 294 295 287 282 286 288 290 291 292 288 289 289 289 291 291 292 295 291 286 283 288 290 294 295 292 297 297 298 300 298 293 293 293 293
305 304 303 303 305 304 302 303 305 306 306 303 302 301 300 300 297 291 286 294 299 296 287 283 281 287 290 291 292 295 290 292 290 291 291 292 293 292 288 285 291 294 296 297 299 299 295 295 292 295 295 295 297 295
305 304 303 303 304 303 302 303 305 306 303 302 301 300 301 301 300 294 296 300 299 293 290 284 281 284 290 286 286 293 294 295 295 294 295 292 293 292 286 291 292 295 299 299 300 299 294 294 294 294 296 295 291 292
304 304 303 303 303 302 302 303 305 303 300 299 300 301 298 296 292 293 303 303 299 294 287 286 283 279 289 287 286 288 297 290 295 291 291 292 290 286 290 289 291 295 296 298 300 294 292 292 293 293 294 293 291 289
304 304 304 303 303 302 302 302 303 299 298 299 297 294 291 293 300 304 298 293 293 292 291 285 289 283 286 287 288 289 288 289 287 290 294 289 287 293 292 291 293 294 296 297 291 291 291 291 292 292 293 292 291 291
304 304 303 303 302 302 302 303 299 298 297 291 286 287 290 297 294 289 284 288 289 286 289 288 288 285 289 286 286 291 284 287 286 290 288 285 286 289 291 291 293 295 298 299 295 294 293 293 293 293 292 292 291 291
304 304 304 303 302 302 303 299 298 294 291 290 289 293 292 290 287 283 282 289 287 284 289 286 284 286 289 290 290 291 288 290 286 293 289 284 287 290 290 290 292 296 301 299 296 294 295 295 295 294 292 291 291 291
304 304 303 303 302 303 300 298 297 297 297 294 290 288 287 286 279 281 280 282 281 285 287 285 283 285 285 291 289 289 287 286 292 285 284 286 288 289 289 290 294 299 302 300 297 296 295 295 295 294 292 291 289 291
304 303 303 303 303 302 299 298 298 297 293 289 287 280 283 281 283 283 282 282 284 285 285 283 282 282 283 284 288 284 289 288 280 278 280 285 287 287 289 292 294 296 300 302 297 296 295 294 294 294 293 292 291 290
303 303 303 303 302 300 298 297 298 295 291 288 288 279 282 286 285 285 285 284 285 284 283 282 283 283 286 286 286 283 279 272 278 277 283 286 288 288 290 291 292 295 301 300 296 295 295 295 294 293 294 293 292 291
303 302 300 302 300 298 297 297 295 293 291 289 286 283 285 282 281 282 283 284 286 285 286 286 285 284 282 282 277 278 272 275 277 283 286 288 289 289 289 291 293 296 301 302 296 296 295 294 293 293 294 293 293 292
300 294 301 300 298 297 297 293 292 290 287 286 283 286 283 282 282 282 284 286 287 284 283 283 278 281 282 271 277 280 278 282 284 286 288 289 289 289 289 291 293 295 299 300 296 296 295 294 294 292 291 292 293 293
293 299 300 297 296 296 293 292 291 289 284 285 283 284 284 284 283 286 288 288 287 284 284 283 284 280 277 272 274 283 285 286 288 288 288 290 290 291 291 291 293 294 296 297 298 294 294 293 291 291 291 292 293 293
297 298 298 297 295 292 289 289 290 285 286 286 286 286 287 287 287 287 288 287 287 287 285 282 279 275 280 285 283 283 285 286 286 287 288 290 291 290 291 291 292 293 293 294 295 295 293 293 291 290 292 291 291 292
299 297 298 296 295 291 289 289 293 286 283 286 286 286 286 286 286 285 285 285 283 282 281 278 279 284 284 287 284 284 288 288 287 286 286 288 289 290 290 290 291 292 292 293 294 294 295 292 292 291 290 290 290 289
295 295 296 294 290 290 289 289 287 287 286 285 287 287 284 285 284 283 283 284 282 280 280 280 283 286 289 286 285 288 288 288 287 288 286 285 288 289 289 290 291 291 290 291 291 293 295 296 293 292 291 290 291 291
293 296 291 292 288 289 287 290 287 287 284 285 286 287 284 283 282 282 283 281 280 280 281 282 285 288 288 287 287 288 288 288 289 290 289 287 285 286 287 289 290 288 288 289 290 291 293 296 295 292 292 291 290 290
294 293 290 289 287 286 285 290 285 285 282 283 286 285 284 283 283 285 279 279 278 282 283 287 288 288 288 289 289 288 288 287 287 289 287 285 287 287 287 289 289 288 286 288 290 291 292 291 294 295 292 292 291 291
296 290 287 286 285 282 288 284 285 284 284 282 283 283 284 283 285 281 279 279 280 283 283 285 287 286 285 287 285 282 282 283 283 286 287 283 283 283 284 285 286 287 287 288 288 289 290 291 291 295 297 293 292 291
283 282 284 279 285 283 283 283 283 282 281 283 284 283 284 285 279 278 278 277 280 281 284 286 286 286 283 285 284 280 281 280 280 280 281 282 281 282 282 283 284 285 285 285 286 287 288 289 290 292 294 295 293 291
277 282 281 283 283 282 283 281 282 282 283 282 283 286 285 281 280 279 278 279 279 281 284 285 285 283 281 281 278 278 278 279 280 280 280 280 280 279 279 279 280 281 284 285 285 285 286 286 287 289 290 291 290 292
276 279 283 288 286 286 283 285 285 282 282 281 283 283 283 278 278 277 279 280 281 283 286 287 286 285 281 278 278 278 278 278 280 281 281 280 280 281 280 279 279 281 283 283 283 283 284 284 285 286 287 290 292 294
283 284 281 283 283 284 283 283 283 282 282 285 285 282 282 280 278 281 282 283 285 286 285 285 285 285 282 280 278 277 277 277 279 280 279 279 280 281 281 282 283 282 282 282 282 282 283 283 284 284 285 286 289 292
282 285 285 282 283 283 283 284 284 285 286 286 282 281 281 284 283 279 282 284 285 284 282 280 279 280 278 277 277 276 276 276 277 276 275 274 275 277 280 281 281 281 281 280 281 281 281 283 283 283 284 285 287 289
282 286 283 283 282 282 285 286 284 284 284 284 284 282 281 280 280 282 283 282 282 281 280 280 279 278 276 276 275 277 276 276 276 276 274 274 274 277 279 279 280 280 280 280 281 280 279 281 282 282 282 282 283 284
286 285 284 284 285 286 285 285 285 285 283 281 282 280 279 280 283 283 281 279 279 279 279 278 278 278 277 276 276 275 275 276 277 278 277 276 276 277 278 278 279 279 279 278 278 278 278 278 279 279 279 279 280 280
284 283 284 282 283 285 288 285 283 282 281 280 278 280 279 279 277 279 282 282 282 281 279 279 278 278 279 279 278 277 277 277 277 278 277 277 277 277 276 277 278 279 277 277 276 276 276 276 275 275 276 277 277 278
283 284 284 283 282 284 285 285 282 280 279 278 279 279 277 275 273 278 284 282 281 280 280 281 279 279 279 279 279 278 277 277 277 276 276 276 275 275 275 276 278 278 276 276 275 275 274 274 273 273 273 274 275 276
Wind_Speed
17 16 15 14 13 12 12 10 10 11 8 8 8 6 7 6 6 1 3 3 3 3 9 6 4 5 1 3 3 4 6 1 3 4 2 3 3 4 3 4 4 2 3 3 2 4 8 3 2 4 7 5 11 16
19 17 15 14 13 13 12 11 10 11 9 8 7 7 7 6 7 3 2 2 2 4 7 2 14 17 17 11 5 3 4 2 3 2 2 1 3 4 2 4 4 2 4 3 6 7 5 6 10 10 7 14 17 13
20 17 16 14 13 13 12 11 10 12 10 9 8 7 7 6 8 5 3 2 2 3 6 3 6 3 4 14 11 5 3 6 3 4 1 2 3 2 3 5 2 4 2 4 5 5 8 8 11 11 13 16 17 13
20 19 17 15 12 14 12 10 10 12 11 9 9 8 7 8 8 7 2 2 2 2 4 8 3 8 4 5 11 17 3 1 1 2 3 3 2 3 3 5 4 6 4 4 7 11 12 8 11 17 17 16 14 11
22 20 19 15 14 15 11 9 10 13 11 10 9 9 8 7 7 4 3 4 5 2 3 7 12 5 3 6 9 12 12 3 0 2 3 3 2 3 2 2 5 4 7 3 7 14 13 17 19 18 10 10 11 13
22 20 16 14 15 14 8 10 10 13 12 10 9 9 8 7 4 1 2 1 3 3 2 5 5 6 5 6 7 7 8 5 4 4 3 3 4 3 3 3 7 4 3 11 8 12 15 19 15 5 8 15 14 15
24 22 19 18 16 12 10 10 12 14 11 7 9 10 8 7 2 3 2 2 7 3 1 5 5 5 5 4 2 2 5 4 4 3 3 3 3 4 2 4 6 15 16 16 14 9 7 3 9 14 17 16 16 12
25 23 21 19 16 15 12 10 14 13 5 5 11 11 10 8 5 4 4 12 5 1 1 3 6 6 4 4 4 1 3 3 4 3 2 2 0 1 3 8 18 21 17 13 8 6 6 8 10 17 16 8 14 13
26 24 22 19 17 15 12 12 15 5 2 9 12 12 0 3 3 3 2 6 4 2 2 1 3 5 5 3 2 4 2 1 1 2 2 1 1 2 8 14 19 18 14 16 12 7 7 7 13 19 17 10 11 11
25 25 22 20 18 15 13 13 9 4 4 11 3 2 3 3 4 7 2 3 3 2 2 3 2 5 2 2 3 3 3 2 2 3 3 2 1 4 13 17 15 17 16 14 8 10 10 11 14 21 16 11 11 12
26 25 23 22 19 16 14 12 10 4 5 2 3 3 0 3 2 1 2 3 2 2 3 4 5 5 2 2 3 2 3 3 2 2 2 2 2 14 19 21 19 19 15 15 7 6 5 8 13 17 16 15 14 12
25 25 23 22 19 17 15 15 11 3 2 2 2 1 0 2 1 2 3 3 3 3 3 4 5 5 3 1 3 3 3 2 2 3 1 3 6 18 20 23 23 21 20 14 5 7 7 7 12 15 14 11 12 12
26 25 24 21 19 17 19 15 11 7 3 2 2 2 2 2 2 5 5 3 3 3 4 3 3 2 2 2 3 2 3 2 4 4 4 2 12 17 20 18 21 21 18 15 11 5 5 7 9 11 11 10 12 11
24 25 23 21 19 21 19 15 12 5 2 3 4 4 5 4 4 5 4 4 4 3 2 2 2 1 2 2 2 3 3 3 4 4 4 5 16 18 16 16 16 20 19 17 12 7 6 9 11 12 10 10 11 12
25 25 22 20 22 21 18 14 10 2 3 3 3 4 6 3 1 2 2 1 1 1 2 2 2 2 2 2 3 3 4 4 3 3 4 10 17 16 17 18 18 18 16 14 11 7 7 9 11 11 12 11 12 12
25 21 8 24 23 21 18 11 4 2 2 2 3 2 1 2 1 1 1 1 1 2 2 3 2 2 3 2 5 4 4 2 3 5 8 11 14 16 17 17 17 17 14 12 10 7 7 10 13 12 10 11 11 12
16 2 25 25 23 20 16 3 3 4 3 3 3 2 1 1 3 2 3 2 1 2 2 3 4 2 2 4 2 1 2 2 5 7 7 12 14 15 16 15 16 17 14 13 11 8 6 8 9 12 15 13 10 10
4 14 29 28 18 11 1 2 3 4 5 4 2 3 2 1 3 1 0 1 2 3 2 3 3 3 2 3 1 1 1 2 3 6 7 11 13 13 12 14 15 14 13 14 12 8 6 9 10 9 11 12 10 10
14 16 29 28 11 4 5 4 3 3 5 2 2 1 3 3 2 3 3 3 3 3 4 3 4 2 2 2 2 2 1 2 4 6 7 10 11 13 13 14 13 14 14 14 14 9 5 6 5 5 6 8 9 9
25 26 25 22 5 2 4 2 3 2 3 4 2 3 3 3 3 3 3 3 3 3 4 3 2 2 3 2 1 1 2 2 4 6 7 8 8 11 11 11 10 11 9 12 10 12 8 6 4 5 4 6 7 9
16 13 16 4 2 1 1 1 3 4 2 3 3 4 3 3 3 2 2 2 4 2 2 1 3 3 2 2 2 1 1 2 3 3 5 8 8 8 8 9 10 9 9 9 10 11 11 8 4 3 4 5 6 6
7 11 3 0 2 1 2 3 2 0 2 2 3 3 4 3 3 2 2 4 2 2 3 3 3 3 3 1 1 3 3 3 4 3 5 7 7 8 9 8 8 9 9 9 9 10 9 9 8 4 3 4 5 5
11 3 2 4 3 2 5 2 2 3 4 4 2 4 3 3 2 3 3 2 2 2 2 3 4 3 2 2 2 3 4 4 3 2 4 4 5 6 6 7 8 8 9 9 9 9 9 10 10 8 4 3 4 4
5 5 5 5 4 4 2 2 1 1 2 3 4 4 4 4 3 2 3 3 3 3 3 4 3 3 2 2 3 3 4 3 3 4 5 4 4 5 5 6 6 6 8 8 8 8 9 9 11 8 8 5 4 2
4 4 4 4 3 3 3 3 3 3 4 4 4 3 4 3 3 2 4 3 4 3 4 4 3 3 3 2 3 2 3 3 2 2 4 3 3 3 4 4 5 4 8 8 10 10 10 9 9 10 9 7 10 4
2 4 6 5 3 4 4 4 6 5 4 3 3 4 3 4 4 4 4 6 4 4 5 5 4 3 2 2 2 2 3 2 1 2 2 3 3 3 5 7 7 7 8 8 8 10 11 10 10 14 11 11 7 5
2 3 3 2 1 1 2 2 1 3 4 5 4 4 4 4 5 3 1 2 4 4 5 4 4 4 5 3 2 1 3 2 1 2 2 2 2 3 3 5 10 8 9 10 10 10 10 11 11 11 11 10 8 7
2 1 3 2 2 2 2 2 4 5 4 3 5 5 8 5 5 3 4 4 6 7 5 4 4 4 5 4 3 2 3 4 3 3 1 2 3 3 6 4 4 10 8 8 9 9 9 9 9 10 11 10 9 8
2 1 2 2 3 3 4 3 3 1 1 3 5 3 3 2 2 1 2 6 6 7 6 5 4 6 6 4 4 4 4 4 5 7 6 4 4 4 7 6 6 6 7 8 10 10 13 8 9 8 11 9 9 8
2 3 3 3 3 4 2 1 2 2 3 3 4 4 3 3 3 2 5 4 6 6 5 5 5 6 5 5 4 4 4 4 4 4 3 3 4 5 5 6 7 7 6 7 9 10 12 8 8 7 9 8 9 9
2 3 3 4 3 1 3 6 6 4 4 4 4 4 4 3 3 4 3 2 5 6 6 5 4 4 6 5 4 4 3 3 4 5 3 2 3 4 5 6 5 6 6 8 8 9 10 9 10 11 12 13 13 10
3 4 1 2 0 4 2 3 2 3 2 3 2 2 2 3 3 2 3 2 6 6 4 5 6 4 4 4 3 3 6 4 3 3 5 4 4 6 5 5 5 6 8 8 8 9 11 12 10 12 12 14 14 14
1 0 0 2 3 3 2 3 3 3 3 3 3 2 2 3 3 2 2 2 3 5 5 5 4 4 6 7 7 5 5 4 5 5 5 5 6 7 5 5 6 7 9 9 9 10 12 13 11 13 14 15 15 15
Wind_Direction
229 231 237 241 245 249 253 256 269 276 274 289 301 315 311 332 325 64 260 206 179 247 276 244 226 217 248 159 185 281 356 309 343 28 347 344 325 354 316 294 294 213 181 241 225 244 278 145 77 200 231 286 315 304
227 221 228 233 241 244 248 253 259 265 259 271 291 293 301 316 308 317 257 201 186 229 261 270 261 250 234 222 161 242 213 300 234 56 353 14 329 348 314 283 324 334 187 248 204 230 250 214 252 276 285 290 294 282
222 225 215 223 234 243 244 248 256 265 257 264 274 283 292 300 293 284 233 242 223 286 292 333 252 271 193 220 203 173 264 211 239 178 262 227 263 230 273 256 289 290 185 231 341 266 271 291 287 274 272 283 288 282
214 222 215 205 221 245 241 241 253 263 256 261 269 280 285 292 295 298 234 196 215 277 291 279 297 292 226 178 196 210 210 142 200 147 231 248 231 191 250 247 246 238 329 260 254 279 305 265 288 287 287 286 291 290
208 214 209 199 215 231 232 248 252 259 254 259 265 275 285 298 306 305 227 218 215 176 281 288 312 261 250 238 220 202 215 202 48 270 223 249 230 236 227 289 248 201 218 217 275 300 283 278 289 303 295 299 296 290
200 200 199 200 212 212 215 248 251 257 252 259 270 280 290 298 325 12 313 155 186 170 277 290 282 291 303 255 253 180 193 190 204 203 228 223 195 182 254 250 251 253 273 256 264 270 286 281 293 285 294 301 301 295
198 191 193 211 212 195 205 242 257 256 249 264 281 283 286 281 192 211 217 169 154 154 247 291 303 283 304 307 312 122 146 186 175 217 245 230 205 197 249 256 326 320 307 294 293 297 294 300 305 323 305 297 311 319
194 187 191 201 203 189 196 234 260 251 239 280 282 287 280 262 255 261 250 219 176 289 256 293 280 322 11 318 320 315 169 209 193 242 247 238 108 259 282 318 317 308 308 293 287 313 267 280 310 309 312 329 317 306
193 186 187 194 196 186 194 229 252 187 249 283 292 295 174 174 190 233 171 148 158 215 290 250 287 288 355 295 265 309 305 222 202 247 234 128 76 32 323 319 310 316 319 299 300 300 313 312 325 326 326 320 309 305
194 184 183 190 185 184 203 235 181 144 267 285 270 192 210 193 282 154 184 161 186 194 207 256 256 273 49 286 293 307 318 243 256 231 131 187 55 306 337 326 320 318 313 320 312 325 330 328 328 331 337 327 322 323
191 181 180 185 179 184 210 186 143 165 253 153 201 208 17 312 101 104 198 221 156 218 200 238 239 270 273 261 277 275 289 278 262 51 287 99 25 342 334 332 330 327 317 300 280 292 321 324 328 329 333 335 333 337
188 179 176 175 181 189 186 149 153 159 157 174 154 96 240 142 130 192 198 207 194 237 195 216 231 212 261 229 260 250 279 255 266 331 266 46 352 335 335 333 329 326 325 313 323 318 332 345 339 329 332 340 339 341
184 174 169 171 177 183 151 154 161 147 137 138 177 156 142 166 156 205 188 202 212 200 216 220 295 212 322 260 303 294 280 348 304 22 26 73 335 329 332 330 328 329 337 330 321 321 345 350 348 342 340 351 343 339
176 162 161 167 171 154 151 159 165 178 176 195 166 173 200 185 232 194 178 184 226 191 202 157 263 26 334 326 358 297 355 321 40 24 353 343 331 320 320 327 333 331 330 336 325 342 10 353 355 356 4 355 353 358
158 154 157 165 153 149 149 154 177 183 206 204 171 210 207 228 229 194 173 89 284 121 96 92 53 97 29 340 15 356 17 40 35 353 309 320 321 321 328 331 328 331 335 335 333 356 10 356 1 356 357 8 2 1
144 139 152 144 145 144 146 154 157 182 227 224 224 253 209 95 7 59 148 239 191 112 101 60 84 70 33 39 49 26 75 25 325 322 311 315 322 328 328 329 330 327 326 335 344 3 12 4 360 354 358 6 3 359
125 111 144 140 140 140 154 134 178 202 214 206 240 210 165 151 184 200 156 214 102 94 101 99 71 67 26 51 65 35 68 11 318 317 320 320 324 325 323 327 336 337 339 352 352 1 9 5 11 4 5 353 356 360
81 142 137 136 132 138 45 232 226 193 226 221 213 196 178 145 140 116 90 7 105 112 101 120 109 75 78 107 96 80 26 314 311 317 319 318 324 332 330 336 336 340 344 355 356 341 11 17 18 8 1 354 353 1
137 140 141 143 154 149 160 184 218 224 212 190 207 164 116 117 74 71 92 46 70 93 100 63 90 114 122 104 83 21 347 340 320 320 317 327 332 337 337 341 347 355 356 354 355 351 354 21 24 12 1 355 2 3
132 140 146 162 174 193 153 174 181 219 197 206 119 123 113 115 113 77 63 49 58 60 55 69 130 106 122 115 134 252 276 313 311 331 343 341 340 341 345 348 349 346 351 354 354 1 358 0 17 6 6 12 7 5
109 145 160 127 315 274 289 193 187 206 169 160 128 119 97 86 85 75 72 1 61 67 98 130 128 112 128 130 202 238 337 351 331 341 336 336 338 341 347 354 354 360 1 359 354 348 350 0 332 355 360 10 7 11
121 134 88 212 268 242 259 233 205 204 117 141 123 111 115 141 147 150 132 61 92 187 160 149 142 132 136 150 74 38 341 331 342 341 343 344 346 353 353 352 353 3 359 355 349 342 339 346 352 345 19 357 10 17
91 104 147 185 224 196 265 125 171 184 145 174 100 109 126 119 121 122 77 141 188 182 161 126 126 135 141 102 70 31 14 5 354 344 342 336 338 353 353 357 3 6 352 350 343 341 340 336 345 350 1 14 2 7
135 170 186 191 184 211 190 203 222 139 115 145 151 121 132 129 164 76 134 173 193 156 129 134 128 117 66 88 58 42 356 1 358 21 19 6 354 348 350 345 356 359 353 332 337 338 342 345 342 345 353 3 12 31
120 195 164 213 203 188 201 177 187 179 177 170 131 132 152 130 105 162 182 204 163 159 151 134 133 134 137 120 76 0 1 32 19 63 0 12 348 330 346 346 345 355 353 343 344 343 344 340 342 342 347 1 0 347
164 207 174 191 171 189 202 174 188 179 159 144 120 114 114 111 150 210 213 171 163 163 152 151 147 132 91 107 124 356 317 334 346 66 4 26 22 9 349 354 351 352 353 345 337 338 338 340 341 342 338 344 345 2
192 236 218 248 227 232 245 245 129 134 171 160 155 134 136 152 214 227 153 199 141 164 142 137 137 128 140 138 115 350 322 329 176 159 114 74 42 23 18 1 351 334 332 340 346 343 342 337 334 332 329 328 329 351
244 279 190 181 208 214 267 207 169 180 190 161 125 159 171 184 196 178 184 170 137 127 120 124 127 122 117 110 102 55 11 0 33 75 70 9 19 28 2 339 333 334 337 339 342 342 347 338 334 327 327 324 317 341
237 228 185 245 227 216 222 217 220 152 62 115 113 119 123 56 46 142 140 144 122 118 117 105 62 93 87 79 66 50 38 26 51 56 39 357 337 337 346 338 341 349 346 339 339 347 339 333 343 337 332 329 325 317
230 176 193 234 217 214 241 190 108 85 43 79 105 101 78 32 349 11 104 99 120 139 135 123 135 131 133 118 107 67 31 43 49 70 53 359 319 309 323 337 342 350 348 347 352 344 346 342 354 4 4 357 353 343
261 179 214 239 269 144 109 100 85 68 59 41 23 76 107 122 48 26 60 96 113 116 113 110 107 131 133 146 137 123 98 27 63 66 62 359 334 342 347 345 339 346 350 357 359 1 358 354 359 358 0 1 356 351
209 221 183 276 224 137 155 50 75 77 85 68 71 75 70 78 79 4 1 84 128 123 125 124 124 157 169 133 117 108 114 128 103 65 46 29 13 3 350 343 347 6 9 12 13 11 7 9 3 0 354 353 350 345
183 196 108 103 133 190 158 105 88 90 82 99 102 103 73 106 139 198 36 33 139 140 134 130 115 118 120 119 125 117 101 102 102 86 65 47 36 25 12 356 3 18 24 22 18 16 16 14 13 8 3 1 356 351